Weather History for Imperial, NE

Change the Weather History Date:

Wednesday, November 21, 2012

  Actual Average Record
Temperature  
Mean Temperature 48 °F 35 °F  
Max Temperature 70 °F 49 °F 76 °F (1974)
Min Temperature 25 °F 22 °F -5 °F (1900)
Degree Days  
Heating Degree Days 17 30  
Month to date heating degree days 462 532  
Cooling Degree Days 0 0  
Month to date cooling degree days 0 0  
Year to date cooling degree days 1382 963  
Moisture  
Dew Point 21 °F    
Average Humidity 43    
Maximum Humidity 68    
Minimum Humidity 17    
Precipitation  
Precipitation 0.00 in 0.02 in 0.80 in (1899)
Sea Level Pressure  
Sea Level Pressure 29.92 in    
Wind  
Wind Speed 5 mph (WSW)    
Max Wind Speed 12 mph    
Max Gust Speed 31 mph    
Visibility 10 miles    
Events      
T = Trace of Precipitation, MM = Missing Value Source: NWS Daily Summary

Daily Weather History Graph

Daily Weather History Graph

Search for Another Location

Airport:

Trip Planner

Search our weather history database for the weather conditions in past years. The results will help you decide how hot, cold, wet, or windy it might be!

Date:

Astronomy

Nov. 21, 2012 Rise Set
Actual Time 6:40 AM MST 4:24 PM MST
Civil Twilight 6:10 AM MST 4:54 PM MST
Nautical Twilight 5:37 AM MST 5:27 PM MST
Astronomical Twilight 5:04 AM MST 5:59 PM MST
Moon 12:43 PM MST 12:00 AM MST
Length of Visible Light 10h 43m
Length of Day
9h 44m
Waxing Gibbous, 62% of the Moon is Illuminated
Nov 21
Waxing Gibbous
Nov 28
Full
Dec 6
Last Quarter
Dec 13
New
Dec 19
First Quarter

Hourly Weather History & Observations

Time (MST) Temp. Windchill Dew Point Humidity Pressure Visibility Wind Dir Wind Speed Gust Speed Precip Events Conditions
12:53 AM 35.1 °F 31.0 °F 19.0 °F 52% 30.04 in 10.0 mi WSW 4.6 mph - N/A   Clear
1:53 AM 32.0 °F 26.4 °F 18.0 °F 56% 30.04 in 10.0 mi WSW 5.8 mph - N/A   Clear
2:53 AM 30.9 °F 26.2 °F 18.0 °F 59% 30.02 in 10.0 mi WSW 4.6 mph - N/A   Clear
3:53 AM 32.0 °F 28.7 °F 17.1 °F 54% 30.00 in 10.0 mi WSW 3.5 mph - N/A   Clear
4:53 AM 26.1 °F 18.4 °F 16.0 °F 66% 30.04 in 10.0 mi WSW 6.9 mph - N/A   Clear
5:53 AM 27.0 °F 18.7 °F 16.0 °F 63% 30.06 in 10.0 mi West 8.1 mph - N/A   Clear
6:53 AM 26.1 °F 18.4 °F 17.1 °F 69% 30.06 in 10.0 mi West 6.9 mph - N/A   Clear
7:53 AM 34.0 °F 29.8 °F 19.0 °F 54% 30.04 in 9.0 mi WSW 4.6 mph - N/A   Clear
8:53 AM 45.0 °F 41.8 °F 24.1 °F 44% 30.00 in 10.0 mi NW 5.8 mph - N/A   Clear
9:53 AM 54.0 °F - 25.0 °F 33% 29.97 in 10.0 mi NW 3.5 mph - N/A   Clear
10:53 AM 60.1 °F - 25.0 °F 26% 29.93 in 10.0 mi SE 3.5 mph - N/A   Clear
11:53 AM 64.9 °F - 24.1 °F 21% 29.88 in 10.0 mi Calm Calm - N/A   Clear
12:53 PM 69.1 °F - 24.1 °F 18% 29.86 in 10.0 mi South 4.6 mph - N/A   Clear
1:53 PM 69.1 °F - 23.0 °F 18% 29.84 in 10.0 mi South 10.4 mph - N/A   Clear
2:53 PM 68.0 °F - 21.0 °F 17% 29.83 in 10.0 mi South 9.2 mph - N/A   Clear
3:53 PM 63.0 °F - 21.9 °F 21% 29.83 in 10.0 mi South 3.5 mph - N/A   Clear
4:53 PM 48.0 °F - 21.0 °F 34% 29.88 in 10.0 mi Calm Calm - N/A   Clear
5:53 PM 46.0 °F - 21.0 °F 37% 29.87 in 10.0 mi Calm Calm - N/A   Clear
6:53 PM 45.0 °F 42.6 °F 21.9 °F 40% 29.86 in 10.0 mi Variable 4.6 mph - N/A   Clear
7:53 PM 37.9 °F 34.4 °F 19.9 °F 48% 29.87 in 10.0 mi North 4.6 mph - N/A   Clear
8:53 PM 39.9 °F 36.7 °F 21.0 °F 47% 29.83 in 10.0 mi WNW 4.6 mph - N/A   Clear
9:53 PM 36.0 °F 33.3 °F 19.9 °F 52% 29.82 in 10.0 mi WNW 3.5 mph - N/A   Clear
10:53 PM 39.0 °F 36.8 °F 21.9 °F 50% 29.79 in 10.0 mi WNW 3.5 mph - N/A   Clear
11:53 PM 32.0 °F 26.4 °F 19.9 °F 61% 29.80 in 10.0 mi NNW 5.8 mph - N/A   Clear